Date String (YYYY-MM-DD hh:mm:ss) UTC,Instrument flags,Ambient pressure (hPa),Sample flow (lpm),Bypass flow (lpm),Sample temperature (°C),Ambient temperature (°C),ASC tube jacket temperature (°C),LED temperature (°C),Box temperature (°C),Sample RH (%),Span deviation,Mass concentration (μg/m³),Mass concentration (μg/m³),Mass concentration (μg/m³)
DateTimeUTC,F1_M11,P_M11,Q1_M11,Q2_M11,T1_M11,T2_M11,T3_M11,T4_M11,T5_M11,U1_M11,ZSPAN_M11,X0_M11,X2_M11,X1_M11
2021-09-26 00:00:00,,0825.6,5.00,0.00,29.1,25.6,00.0,38.2,30.5,12.5,0001.6,0012.95,0007.23,0006.30
2021-09-26 00:01:00,,0825.6,5.01,0.00,29.1,25.9,00.0,38.2,30.6,12.5,0001.5,0012.72,0007.22,0006.31
2021-09-26 00:02:00,,0825.6,5.00,0.00,29.0,26.3,00.0,38.2,30.7,12.7,0001.3,0012.85,0007.20,0006.30
2021-09-26 00:03:00,,0825.6,5.00,0.00,29.0,26.8,00.0,38.1,30.8,12.7,0001.1,0013.16,0007.24,0006.30
2021-09-26 00:04:00,,0825.6,5.00,0.00,29.1,27.3,00.0,38.1,30.9,12.5,0001.0,0013.76,0007.27,0006.29
2021-09-26 00:05:00,,0825.6,4.99,0.00,29.1,27.6,00.0,38.1,31.0,12.5,0000.9,0013.97,0007.29,0006.30
2021-09-26 00:06:00,,0825.6,4.99,0.00,29.2,27.9,00.0,38.2,31.1,12.6,0000.9,0014.16,0007.29,0006.29
2021-09-26 00:07:00,,0825.6,5.01,0.00,29.2,28.2,00.0,38.2,31.2,12.8,0001.1,0015.19,0007.33,0006.30
2021-09-26 00:08:00,,0825.6,5.00,0.00,29.3,28.4,00.0,38.2,31.3,13.0,0001.3,0016.15,0007.39,0006.31
2021-09-26 00:09:00,,0825.6,5.00,0.00,29.4,28.6,00.0,38.2,31.3,13.0,0001.2,0016.77,0007.41,0006.31
2021-09-26 00:10:00,,0825.6,4.98,0.00,29.4,28.7,00.0,38.3,31.4,12.8,0001.0,0016.74,0007.47,0006.34
2021-09-26 00:11:00,,0825.6,5.01,0.00,29.4,27.5,00.0,38.3,31.1,12.8,0001.3,0017.01,0007.48,0006.34
2021-09-26 00:12:00,,0825.6,5.01,0.00,29.3,25.9,00.0,38.3,30.6,12.9,0001.7,0017.37,0007.52,0006.36
2021-09-26 00:13:00,,0825.6,4.99,0.00,29.1,25.9,00.0,38.3,30.6,13.3,0001.7,0018.27,0007.59,0006.37
2021-09-26 00:14:00,,0825.6,5.00,0.00,29.1,26.3,00.0,38.2,30.7,13.8,0001.8,0018.72,0007.62,0006.38
2021-09-26 00:15:00,,0825.6,5.00,0.00,29.1,26.7,00.0,38.2,30.8,13.9,0001.7,0018.71,0007.66,0006.41
2021-09-26 00:16:00,,0825.6,5.01,0.00,29.1,27.2,00.0,38.2,30.9,13.9,0001.8,0019.18,0007.68,0006.42
2021-09-26 00:17:00,,0825.6,5.00,0.00,29.1,27.6,00.0,38.2,31.0,13.8,0002.3,0019.93,0007.73,0006.46
2021-09-26 00:18:00,,0825.6,4.99,0.00,29.2,27.9,00.0,38.2,31.1,13.4,0002.3,0019.57,0007.76,0006.48
2021-09-26 00:19:00,,0825.6,5.00,0.00,29.3,28.1,00.0,38.2,31.2,13.0,0002.1,0018.79,0007.72,0006.48
2021-09-26 00:20:00,,0825.6,5.01,0.00,29.3,28.4,00.0,38.2,31.3,12.8,0002.0,0018.02,0007.65,0006.48
2021-09-26 00:21:00,,0825.8,5.01,0.00,29.4,28.5,00.0,38.3,31.3,12.8,0002.3,0017.81,0007.59,0006.44
2021-09-26 00:22:00,,0825.6,4.99,0.00,29.4,28.7,00.0,38.3,31.4,12.7,0002.1,0018.27,0007.56,0006.41
2021-09-26 00:23:00,,0825.6,5.01,0.00,29.5,28.0,00.0,38.3,31.2,12.5,0001.7,0019.21,0007.55,0006.40
2021-09-26 00:24:00,,0825.6,5.00,0.00,29.3,26.1,00.0,38.3,30.7,12.7,0001.9,0018.41,0007.50,0006.40
2021-09-26 00:25:00,,0825.7,5.00,0.00,29.2,25.7,00.0,38.3,30.5,12.9,0002.2,0017.52,0007.41,0006.39
2021-09-26 00:26:00,,0825.5,5.00,0.00,29.1,26.0,00.0,38.3,30.6,13.0,0002.6,0017.09,0007.33,0006.37
2021-09-26 00:27:00,,0825.6,5.00,0.00,29.1,26.5,00.0,38.2,30.7,13.0,0002.6,0016.83,0007.33,0006.36
2021-09-26 00:28:00,,0825.7,5.00,0.00,29.1,27.0,00.0,38.2,30.8,13.1,0002.7,0016.18,0007.35,0006.35
2021-09-26 00:29:00,,0825.6,5.00,0.00,29.1,27.4,00.0,38.2,31.0,13.2,0002.7,0015.57,0007.31,0006.34
2021-09-26 00:30:00,,0825.7,4.99,0.00,29.2,27.8,00.0,38.2,31.1,13.2,0002.6,0016.83,0007.32,0006.32
2021-09-26 00:31:00,,0825.6,5.00,0.00,29.2,28.0,00.0,38.2,31.2,13.3,0002.9,0018.23,0007.36,0006.31
2021-09-26 00:32:00,,0825.7,5.01,0.00,29.3,28.3,00.0,38.2,31.2,13.3,0002.9,0019.07,0007.42,0006.31
2021-09-26 00:33:00,,0825.7,4.98,0.00,29.3,28.5,00.0,38.3,31.3,13.1,0002.8,0018.88,0007.46,0006.31
2021-09-26 00:34:00,,0825.7,5.00,0.00,29.4,28.7,00.0,38.3,31.4,12.9,0002.8,0018.60,0007.49,0006.31
2021-09-26 00:35:00,,0825.7,5.01,0.00,29.5,28.8,00.0,38.3,31.4,12.8,0002.9,0019.58,0007.49,0006.31
2021-09-26 00:36:00,,0825.7,4.99,0.00,29.5,27.6,00.0,38.3,31.1,12.7,0002.8,0019.89,0007.53,0006.31
2021-09-26 00:37:00,,0825.7,5.01,0.00,29.3,25.8,00.0,38.3,30.6,12.7,0002.9,0019.98,0007.57,0006.32
2021-09-26 00:38:00,,0825.7,5.01,0.00,29.2,25.7,00.0,38.3,30.5,12.7,0002.9,0020.22,0007.55,0006.32
2021-09-26 00:39:00,,0825.6,5.01,0.00,29.1,26.1,00.0,38.3,30.7,12.7,0002.2,0020.04,0007.48,0006.30
2021-09-26 00:40:00,,0825.6,5.00,0.00,29.1,26.6,00.0,38.2,30.7,12.8,0002.1,0020.55,0007.51,0006.30
2021-09-26 00:41:00,,0825.6,4.99,0.00,29.1,27.1,00.0,38.2,30.8,12.8,0002.4,0019.97,0007.50,0006.29
2021-09-26 00:42:00,,0825.6,4.99,0.00,29.1,27.5,00.0,38.2,31.0,12.7,0002.6,0020.02,0007.48,0006.29
2021-09-26 00:43:00,,0825.6,5.00,0.00,29.2,27.8,00.0,38.2,31.1,12.4,0002.5,0020.29,0007.40,0006.27
2021-09-26 00:44:00,,0825.6,5.02,0.00,29.2,28.1,00.0,38.2,31.2,11.9,0002.7,0019.67,0007.37,0006.27
2021-09-26 00:45:00,,0825.6,5.00,0.00,29.3,28.3,00.0,38.2,31.2,11.9,0002.9,0018.77,0007.32,0006.28
2021-09-26 00:46:00,,0825.6,4.99,0.00,29.4,28.5,00.0,38.3,31.3,11.7,0003.0,0017.43,0007.29,0006.27
2021-09-26 00:47:00,,0825.7,5.01,0.00,29.4,28.7,00.0,38.3,31.4,11.7,0003.0,0016.86,0007.25,0006.26
2021-09-26 00:48:00,,0825.7,4.98,0.00,29.5,28.8,00.0,38.3,31.4,11.6,0002.4,0017.76,0007.24,0006.26
2021-09-26 00:49:00,,0825.7,5.01,0.00,29.5,28.3,00.0,38.4,31.3,11.5,0002.0,0018.27,0007.25,0006.26
2021-09-26 00:50:00,,0825.7,4.99,0.00,29.4,26.3,00.0,38.4,30.7,11.5,0001.9,0018.18,0007.25,0006.26
2021-09-26 00:51:00,,0825.6,5.00,0.00,29.2,25.6,00.0,38.3,30.5,11.8,0001.9,0018.04,0007.20,0006.25
2021-09-26 00:52:00,,0825.7,5.01,0.00,29.1,26.0,00.0,38.3,30.6,12.9,0001.6,0018.02,0007.21,0006.26
2021-09-26 00:53:00,,0825.7,5.00,0.00,29.1,26.4,00.0,38.3,30.7,13.0,0001.7,0017.65,0007.25,0006.27
2021-09-26 00:54:00,,0825.7,5.00,0.00,29.1,26.9,00.0,38.2,30.8,13.0,0001.6,0016.61,0007.23,0006.29
2021-09-26 00:55:00,,0825.7,4.99,0.00,29.2,27.3,00.0,38.2,31.0,13.6,0001.6,0016.92,0007.26,0006.30
2021-09-26 00:56:00,,0825.7,5.01,0.00,29.2,27.7,00.0,38.2,31.1,14.3,0001.5,0017.46,0007.26,0006.30
2021-09-26 00:57:00,,0825.7,5.00,0.00,29.2,28.0,00.0,38.2,31.1,14.3,0001.5,0018.38,0007.30,0006.31
2021-09-26 00:58:00,,0825.7,5.00,0.00,29.3,28.2,00.0,38.3,31.2,14.3,0001.3,0019.60,0007.42,0006.33
2021-09-26 00:59:00,,0825.7,5.00,0.00,29.4,28.4,00.0,38.3,31.3,14.1,0001.5,0019.78,0007.48,0006.33
